Regional Weather Roundup
Issued by NWS

Current Version | Previous Version | Text Only | Print | Product List | Glossary On
Versions: 1 2 3 4 5 6 7 8 9 10 11 12 13 14 15 16 17 18 19 20 21 22 23 24 25 26 27 28 29 30 31 32 33 34 35 36 37 38 39 40 41 42 43 44 45 46 47 48 49 50
000
ASUS45 KREV 241510
RWRNV
NEVADA REGIONAL WEATHER ROUNDUP
NATIONAL WEATHER SERVICE RENO NV
800 AM PDT MON APR 24 2017

NOTE: "FAIR" INDICATES FEW OR NO CLOUDS BELOW 12,000 FEET WITH NO
SIGNIFICANT WEATHER AND/OR OBSTRUCTIONS TO VISIBILITY.

NVZ001-003-004-241600-
WESTERN NEVADA

CITY           SKY/WX    TMP DP  RH WIND       PRES   REMARKS
RENO           PTSUNNY   49  30  48 W10G16    29.86R
CARSON CITY    CLOUDY    46  30  53 S12       29.88R
MINDEN         CLOUDY    46  32  57 S5        29.89R
FALLON         CLOUDY    52  26  36 CALM      29.83R
LOVELOCK       CLOUDY    51  30  44 W14       29.82R
HAWTHORNE      PTSUNNY   54  21  28 E7        29.82R
$$

NVZ002-CAZ072-073-241600-
NORTHERN AND CENTRAL SIERRA

CITY           SKY/WX    TMP DP  RH WIND       PRES   REMARKS
S. LAKE TAHOE  LGT SNOW  35  32  88 SE6       29.93R FOG
TRUCKEE        CLOUDY    36  34  93 S10       29.92R
SQUAW VLY 8000   N/A     28  27  93 SW15        N/A
SUSANVILLE     CLOUDY    45  37  76 NW13      29.87R
MAMMOTH LAKES  CLOUDY    42  28  57 NW9G24    29.92S
BRIDGEPORT     LGT RAIN  39  30  70 W10       29.89R
$$

NVZ030-031-036-241600-
NORTHERN NEVADA

CITY           SKY/WX    TMP DP  RH WIND       PRES   REMARKS
ELKO           CLOUDY    45  31  58 W15G24    29.78S
WINNEMUCCA     CLOUDY    43  37  79 S12       29.79R
WENDOVER       CLOUDY    54  25  32 W12       29.70S
$$

NVZ035-037-241600-
CENTRAL NEVADA

CITY           SKY/WX    TMP DP  RH WIND       PRES   REMARKS
ELY            PTSUNNY   44  30  57 SE6       29.78S
EUREKA           N/A     47  24  40 W12       29.79F
$$

NVZ013-014-241600-
SOUTH CENTRAL NEVADA

CITY           SKY/WX    TMP DP  RH WIND       PRES   REMARKS
TONOPAH        CLOUDY    51  19  28 NE3       29.83S
$$

NVZ017-020-022-241600-
SOUTHERN NEVADA

CITY           SKY/WX    TMP DP  RH WIND       PRES   REMARKS
LAS VEGAS      PTSUNNY   68  28  22 S12       29.69R
N. LAS VEGAS   PTSUNNY   63  28  26 N5        29.70R
NELLIS AFB     PTSUNNY   67  31  26 S14       29.69R
HENDERSON      PTSUNNY   66  31  27 SW20      29.72S
MERCURY        MOSUNNY   62  29  28 W10       29.75R
$$



USA.gov is the U.S. government's official web portal to all federal, state and local government web resources and services.